Date String (YYYY-MM-DD hh:mm:ss) UTC,Instrument flags,Ambient pressure (hPa),Sample flow (lpm),Bypass flow (lpm),Sample temperature (°C),Ambient temperature (°C),ASC tube jacket temperature (°C),LED temperature (°C),Box temperature (°C),Sample RH (%),Span deviation,Mass concentration (μg/m³),Mass concentration (μg/m³),Mass concentration (μg/m³)
DateTimeUTC,F1_M11,P_M11,Q1_M11,Q2_M11,T1_M11,T2_M11,T3_M11,T4_M11,T5_M11,U1_M11,ZSPAN_M11,X0_M11,X2_M11,X1_M11
2023-01-19 21:00:00,,0821.6,5.00,0.00,24.2,22.8,00.0,33.0,26.1,09.4,0000.0,0013.15,0009.39,0008.96
2023-01-19 21:01:00,,0821.5,5.00,0.00,24.2,22.8,00.0,33.0,26.1,09.1,0000.0,0012.88,0009.30,0008.90
2023-01-19 21:02:00,,0821.5,5.01,0.00,24.2,22.8,00.0,33.0,26.0,09.3,0000.0,0012.65,0009.22,0008.84
2023-01-19 21:03:00,,0821.5,5.01,0.00,24.2,22.8,00.0,33.0,26.1,09.5,0000.0,0012.43,0009.16,0008.81
2023-01-19 21:04:00,,0821.6,4.99,0.00,24.2,22.8,00.0,33.0,26.1,09.5,0000.0,0012.30,0009.09,0008.76
2023-01-19 21:05:00,,0821.5,4.99,0.00,24.2,22.8,00.0,33.0,26.0,09.5,0001.6,0012.25,0009.04,0008.71
2023-01-19 21:06:00,,0821.6,4.99,0.00,24.2,22.8,00.0,33.0,26.0,09.7,0000.5,0012.27,0009.02,0008.70
2023-01-19 21:07:00,,0821.5,4.99,0.00,24.2,22.8,00.0,33.0,26.0,09.7,0002.8,0012.85,0009.03,0008.68
2023-01-19 21:08:00,,0821.6,5.00,0.00,24.2,22.8,00.0,33.0,26.0,09.5,0001.8,0012.98,0008.98,0008.63
2023-01-19 21:09:00,,0821.6,4.99,0.00,24.2,22.7,00.0,33.0,26.1,09.6,0000.6,0012.98,0008.98,0008.61
2023-01-19 21:10:00,,0821.6,5.00,0.00,24.2,22.7,00.0,33.0,26.0,09.7,0002.0,0012.88,0008.97,0008.59
2023-01-19 21:11:00,,0821.6,5.02,0.00,24.2,22.7,00.0,33.0,26.0,09.7,0002.3,0012.98,0008.99,0008.60
2023-01-19 21:12:00,,0821.6,5.00,0.00,24.2,22.7,00.0,33.0,26.0,09.6,0003.0,0013.22,0009.06,0008.65
2023-01-19 21:13:00,,0821.6,4.99,0.00,24.2,22.7,00.0,33.0,26.0,09.6,0002.5,0013.30,0009.08,0008.69
2023-01-19 21:14:00,,0821.6,5.00,0.00,24.2,22.7,00.0,33.0,26.0,09.6,0001.3,0013.74,0009.10,0008.70
2023-01-19 21:15:00,,0821.6,5.03,0.00,24.2,22.7,00.0,33.0,26.0,09.5,0000.0,0013.93,0009.10,0008.71
2023-01-19 21:16:00,,0821.6,4.99,0.00,24.2,22.7,00.0,33.0,26.0,09.5,0000.0,0013.92,0009.12,0008.74
2023-01-19 21:17:00,,0821.6,5.00,0.00,24.2,22.7,00.0,33.0,26.0,09.4,0000.0,0013.92,0009.16,0008.77
2023-01-19 21:18:00,,0821.7,5.00,0.00,24.2,22.7,00.0,33.0,26.0,09.4,-000.4,0013.73,0009.24,0008.84
2023-01-19 21:19:00,,0821.6,5.00,0.00,24.2,22.8,00.0,33.0,26.0,09.3,-001.3,0014.10,0009.29,0008.90
2023-01-19 21:20:00,,0821.7,5.00,0.00,24.2,22.8,00.0,33.0,26.0,09.3,-000.4,0014.17,0009.36,0008.97
2023-01-19 21:21:00,,0821.7,5.00,0.00,24.2,22.8,00.0,33.0,26.0,09.3,-000.2,0014.24,0009.42,0009.03
2023-01-19 21:22:00,,0821.8,5.00,0.00,24.2,22.8,00.0,33.0,26.0,09.4,0000.9,0014.34,0009.52,0009.13
2023-01-19 21:23:00,,0821.8,5.00,0.00,24.2,22.8,00.0,33.0,26.0,09.6,0001.3,0014.32,0009.58,0009.19
2023-01-19 21:24:00,,0821.8,4.99,0.00,24.2,22.8,00.0,33.0,26.0,09.7,0001.6,0014.26,0009.63,0009.23
2023-01-19 21:25:00,,0821.8,5.00,0.00,24.2,22.8,00.0,33.0,26.0,09.6,0002.3,0014.11,0009.65,0009.26
2023-01-19 21:26:00,,0821.8,5.00,0.00,24.2,22.8,00.0,33.0,26.0,09.5,0002.9,0014.51,0009.74,0009.31
2023-01-19 21:27:00,,0821.8,5.00,0.00,24.2,22.8,00.0,33.0,26.0,09.5,0003.3,0014.58,0009.80,0009.36
2023-01-19 21:28:00,,0821.9,5.00,0.00,24.2,22.8,00.0,33.0,26.0,09.6,0003.2,0014.75,0009.84,0009.43
2023-01-19 21:29:00,,0821.8,4.99,0.00,24.2,22.8,00.0,33.0,26.0,09.7,0003.4,0014.95,0009.88,0009.47
2023-01-19 21:30:00,,0821.8,5.03,0.00,24.2,22.8,00.0,33.0,26.0,09.5,0002.9,0015.08,0009.93,0009.51
2023-01-19 21:31:00,,0821.8,5.00,0.00,24.2,22.8,00.0,33.0,26.0,09.4,0002.4,0015.20,0009.96,0009.56
2023-01-19 21:32:00,,0821.8,5.01,0.00,24.2,22.8,00.0,33.0,26.0,09.4,0001.5,0015.20,0009.98,0009.58
2023-01-19 21:33:00,,0821.8,5.00,0.00,24.2,22.8,00.0,33.0,26.0,09.3,0000.5,0015.12,0009.93,0009.54
2023-01-19 21:34:00,,0821.8,4.99,0.00,24.2,22.8,00.0,33.0,26.0,09.4,0000.0,0015.07,0009.93,0009.54
2023-01-19 21:35:00,,0821.8,4.99,0.00,24.2,22.8,00.0,33.0,26.0,09.5,-000.2,0015.27,0010.01,0009.60
2023-01-19 21:36:00,,0821.8,5.00,0.00,24.2,22.8,00.0,33.0,26.0,09.6,-000.0,0015.61,0010.10,0009.64
2023-01-19 21:37:00,,0822.0,5.02,0.00,24.2,22.8,00.0,33.0,26.0,09.5,-000.3,0015.34,0010.13,0009.66
2023-01-19 21:38:00,,0822.0,5.00,0.00,24.2,22.7,00.0,33.0,26.0,09.4,-000.5,0015.82,0010.13,0009.63
2023-01-19 21:39:00,,0822.2,4.99,0.00,24.2,22.8,00.0,33.0,26.0,09.4,0000.1,0016.37,0010.14,0009.60
2023-01-19 21:40:00,,0822.1,4.98,0.00,24.2,22.8,00.0,33.0,26.0,09.4,-000.3,0016.32,0010.15,0009.54
2023-01-19 21:41:00,,0822.2,5.01,0.00,24.2,22.7,00.0,33.0,26.0,09.4,-000.2,0015.64,0010.16,0009.51
2023-01-19 21:42:00,,0822.1,5.00,0.00,24.2,22.7,00.0,33.0,26.0,09.4,-000.5,0015.72,0010.21,0009.49
2023-01-19 21:43:00,,0822.1,4.99,0.00,24.2,22.8,00.0,33.0,26.0,09.5,0000.1,0015.89,0010.28,0009.50
2023-01-19 21:44:00,,0821.9,5.01,0.00,24.2,22.8,00.0,33.0,26.0,10.0,0000.8,0016.07,0010.40,0009.61
2023-01-19 21:45:00,,0821.9,4.99,0.00,24.2,22.8,00.0,33.0,26.0,10.0,0000.4,0016.51,0010.53,0009.74
2023-01-19 21:46:00,,0822.0,4.98,0.00,24.2,22.8,00.0,33.0,26.0,09.9,0000.6,0016.78,0010.61,0009.80
2023-01-19 21:47:00,,0822.0,5.00,0.00,24.2,22.7,00.0,33.0,26.0,09.9,0000.2,0017.15,0010.67,0009.86
2023-01-19 21:48:00,,0822.0,5.00,0.00,24.2,22.7,00.0,33.0,26.0,09.9,0000.4,0018.14,0010.78,0009.95
2023-01-19 21:49:00,,0822.1,5.00,0.00,24.2,22.7,00.0,33.0,26.0,10.1,0000.2,0018.81,0010.96,0010.12
2023-01-19 21:50:00,,0822.1,4.98,0.00,24.2,22.7,00.0,33.0,26.0,10.0,-000.0,0018.42,0011.16,0010.31
2023-01-19 21:51:00,,0822.1,5.00,0.00,24.2,22.7,00.0,33.0,26.0,09.8,0000.6,0018.40,0011.23,0010.45
2023-01-19 21:52:00,,0822.1,5.01,0.00,24.2,22.7,00.0,33.0,26.0,09.9,0000.4,0018.37,0011.26,0010.56
2023-01-19 21:53:00,,0822.1,5.01,0.00,24.1,22.7,00.0,33.0,26.0,10.0,0000.9,0018.32,0011.33,0010.69
2023-01-19 21:54:00,,0822.1,5.00,0.00,24.1,22.7,00.0,33.0,26.0,09.9,0000.0,0018.31,0011.39,0010.80
2023-01-19 21:55:00,,0822.1,4.99,0.00,24.1,22.7,00.0,33.0,26.0,09.8,0000.0,0018.51,0011.48,0010.87
2023-01-19 21:56:00,,0822.1,4.99,0.00,24.1,22.7,00.0,33.0,26.0,09.9,0000.4,0018.51,0011.58,0010.95
2023-01-19 21:57:00,,0822.1,4.99,0.00,24.1,22.7,00.0,33.0,26.0,09.9,0001.1,0018.68,0011.68,0011.07
2023-01-19 21:58:00,,0822.1,5.01,0.00,24.1,22.7,00.0,33.0,26.0,10.0,0002.1,0018.43,0011.79,0011.20
2023-01-19 21:59:00,,0822.1,5.00,0.00,24.2,22.7,00.0,33.0,26.0,10.0,0001.2,0017.54,0011.85,0011.32
